,,PA_Meas_PMT16A,,PR_Meas_QMR101_102,,RH_Meas_QMH101,,SR_Meas_QMS101,,TA_Meas_QMH101,,GenWind,,GenWind,
time,status,PA,status,PR,status,RH,status,SR,status,TA,status,DirAvg,status,SpdAvg,
2009-08-26, 00:00:04,VALID,918.206,VALID,0,VALID,95.2622,VALID,0,VALID,20.1452,VALID,133,VALID,0.746875,
2009-08-26, 00:01:04,VALID,918.161,VALID,0,VALID,95.2927,VALID,0,VALID,20.1662,VALID,133,VALID,0.463672,
2009-08-26, 00:02:04,VALID,918.136,VALID,0,VALID,95.3003,VALID,0,VALID,20.1257,VALID,133,VALID,0.605859,
2009-08-26, 00:03:04,VALID,918.137,VALID,0,VALID,95.2622,VALID,0,VALID,20.1272,VALID,133,VALID,0.810156,
2009-08-26, 00:04:04,VALID,918.142,VALID,0,VALID,95.3461,VALID,0,VALID,20.1467,VALID,133,VALID,0.798437,
2009-08-26, 00:05:04,VALID,918.123,VALID,0,VALID,95.3079,VALID,0,VALID,20.1272,VALID,133,VALID,0.39375,
2009-08-26, 00:06:04,VALID,918.088,VALID,0,VALID,95.2622,VALID,0,VALID,20.1077,VALID,133,VALID,0.684766,
2009-08-26, 00:07:04,VALID,918.107,VALID,0,VALID,95.2851,VALID,0,VALID,20.1077,VALID,133,VALID,0.509766,
2009-08-26, 00:08:04,VALID,918.05,VALID,0,VALID,95.3308,VALID,0,VALID,20.0867,VALID,133,VALID,0.629297,
2009-08-26, 00:09:04,VALID,918.058,VALID,0,VALID,95.3689,VALID,0,VALID,20.1077,VALID,133,VALID,0.392578,
2009-08-26, 00:10:04,VALID,918.025,VALID,0,VALID,95.3918,VALID,0,VALID,20.1467,VALID,133,VALID,0.366797,
2009-08-26, 00:11:04,VALID,918.037,VALID,0,VALID,95.3689,VALID,0,VALID,20.1452,VALID,133,VALID,0.358594,
2009-08-26, 00:12:04,VALID,917.98,VALID,0,VALID,95.3156,VALID,0,VALID,20.1452,VALID,133,VALID,0.297266,
2009-08-26, 00:13:04,VALID,917.951,VALID,0,VALID,95.3384,VALID,0,VALID,20.1662,VALID,133,VALID,0.328516,
2009-08-26, 00:14:04,VALID,917.897,VALID,0,VALID,95.247,VALID,0,VALID,20.1062,VALID,133,VALID,0.360547,
2009-08-26, 00:15:04,VALID,917.891,VALID,0,VALID,95.247,VALID,0,VALID,20.1077,VALID,133,VALID,0.221094,
2009-08-26, 00:16:04,VALID,917.843,VALID,0,VALID,95.186,VALID,0,VALID,20.0688,VALID,133,VALID,0.245312,
2009-08-26, 00:17:04,VALID,917.825,VALID,0,VALID,95.1936,VALID,0,VALID,20.0493,VALID,133,VALID,0.332031,
2009-08-26, 00:18:04,VALID,917.815,VALID,0,VALID,95.186,VALID,0,VALID,19.9908,VALID,133,VALID,0.420703,
2009-08-26, 00:19:04,VALID,917.783,VALID,0,VALID,95.2012,VALID,0,VALID,19.9908,VALID,133,VALID,0.580078,
2009-08-26, 00:20:04,VALID,917.758,VALID,0,VALID,95.1936,VALID,0,VALID,19.9713,VALID,133,VALID,0.625781,
2009-08-26, 00:21:04,VALID,917.73,VALID,0,VALID,95.2012,VALID,0,VALID,19.9518,VALID,133,VALID,0.759375,
2009-08-26, 00:22:04,VALID,917.727,VALID,0,VALID,95.2088,VALID,0,VALID,19.9518,VALID,133,VALID,0.576953,
2009-08-26, 00:23:04,VALID,917.679,VALID,0,VALID,95.2241,VALID,0,VALID,19.9323,VALID,133,VALID,0.475781,
2009-08-26, 00:24:04,VALID,917.677,VALID,0,VALID,95.2165,VALID,0,VALID,19.9323,VALID,133,VALID,0.388672,
2009-08-26, 00:25:04,VALID,917.61,VALID,0,VALID,95.3003,VALID,0,VALID,19.9518,VALID,133,VALID,0.527734,
2009-08-26, 00:26:04,VALID,917.585,VALID,0,VALID,95.2775,VALID,0,VALID,19.9518,VALID,133,VALID,0.936328,
2009-08-26, 00:27:04,VALID,917.582,VALID,0,VALID,95.2622,VALID,0,VALID,19.9308,VALID,133,VALID,0.465625,
2009-08-26, 00:28:04,VALID,917.522,VALID,0,VALID,95.2927,VALID,0,VALID,19.9502,VALID,134,VALID,0.757813,
2009-08-26, 00:29:04,VALID,917.481,VALID,0,VALID,95.2698,VALID,0,VALID,19.9713,VALID,140,VALID,1.27344,
2009-08-26, 00:30:04,VALID,917.496,VALID,0,VALID,95.2927,VALID,0,VALID,19.9908,VALID,194,VALID,0.684375,
2009-08-26, 00:31:04,VALID,917.458,VALID,0,VALID,95.2698,VALID,0,VALID,19.9713,VALID,194,VALID,0.674609,
2009-08-26, 00:32:04,VALID,917.461,VALID,0,VALID,95.2165,VALID,0,VALID,19.9713,VALID,194,VALID,1.14922,
2009-08-26, 00:33:04,VALID,917.465,VALID,0,VALID,95.1631,VALID,0,VALID,19.9518,VALID,193,VALID,1.37344,
2009-08-26, 00:34:04,VALID,917.428,VALID,0,VALID,95.1783,VALID,0,VALID,19.9518,VALID,193,VALID,1.275,
2009-08-26, 00:35:04,VALID,917.423,VALID,0,VALID,95.1936,VALID,0,VALID,19.9518,VALID,122,VALID,0.888672,
2009-08-26, 00:36:04,VALID,917.406,VALID,0,VALID,95.1936,VALID,0,VALID,19.9323,VALID,122,VALID,0.971484,
2009-08-26, 00:37:04,VALID,917.403,VALID,0,VALID,95.1479,VALID,0,VALID,19.8918,VALID,138,VALID,1.2707,
2009-08-26, 00:38:04,VALID,917.408,VALID,0,VALID,95.1631,VALID,0,VALID,19.9128,VALID,133,VALID,0.908203,
2009-08-26, 00:39:04,VALID,917.432,VALID,0,VALID,95.1783,VALID,0,VALID,19.9128,VALID,130,VALID,1.47422,
2009-08-26, 00:40:04,VALID,917.404,VALID,0,VALID,95.1555,VALID,0,VALID,19.8528,VALID,128,VALID,1.50039,
2009-08-26, 00:41:04,VALID,917.384,VALID,0,VALID,95.186,VALID,0,VALID,19.8738,VALID,126,VALID,1.11133,
2009-08-26, 00:42:04,VALID,917.439,VALID,0,VALID,95.1936,VALID,0,VALID,19.8738,VALID,132,VALID,1.42305,
2009-08-26, 00:43:04,VALID,917.392,VALID,0,VALID,95.1555,VALID,0,VALID,19.8543,VALID,122,VALID,1.98555,
2009-08-26, 00:44:04,VALID,917.388,VALID,0,VALID,95.1479,VALID,0,VALID,19.8543,VALID,125,VALID,1.66133,
2009-08-26, 00:45:04,VALID,917.356,VALID,0,VALID,95.1174,VALID,0,VALID,19.8153,VALID,122,VALID,1.77891,
2009-08-26, 00:46:04,VALID,917.358,VALID,0,VALID,95.125,VALID,0,VALID,19.8153,VALID,134,VALID,1.69883,
2009-08-26, 00:47:04,VALID,917.308,VALID,0,VALID,95.0488,VALID,0,VALID,19.7958,VALID,126,VALID,1.69844,
2009-08-26, 00:48:04,VALID,917.276,VALID,0,VALID,94.9496,VALID,0,VALID,19.7763,VALID,147,VALID,1.69844,
2009-08-26, 00:49:04,VALID,917.242,VALID,0,VALID,94.9039,VALID,0,VALID,19.7568,VALID,136,VALID,1.46719,
2009-08-26, 00:50:04,VALID,917.204,VALID,0,VALID,94.8124,VALID,0,VALID,19.7568,VALID,127,VALID,1.01836,
2009-08-26, 00:51:04,VALID,917.154,VALID,0,VALID,94.8277,VALID,0,VALID,19.7763,VALID,125,VALID,0.610156,
2009-08-26, 00:52:04,VALID,917.13,VALID,0,VALID,94.5532,VALID,0,VALID,19.7358,VALID,125,VALID,1.17773,
2009-08-26, 00:53:04,VALID,917.084,VALID,0,VALID,94.5304,VALID,0,VALID,19.7973,VALID,125,VALID,0.753125,
2009-08-26, 00:54:04,VALID,917.084,VALID,0,VALID,94.3017,VALID,0,VALID,19.7568,VALID,125,VALID,1.17461,
2009-08-26, 00:55:04,VALID,917.08,VALID,0,VALID,94.2864,VALID,0,VALID,19.7763,VALID,125,VALID,0.916016,
2009-08-26, 00:56:04,VALID,917.079,VALID,0,VALID,93.89,VALID,0,VALID,19.7568,VALID,124,VALID,1.63359,
2009-08-26, 00:57:04,VALID,917.083,VALID,0,VALID,93.768,VALID,0,VALID,19.7568,VALID,133,VALID,1.39688,
2009-08-26, 00:58:04,VALID,917.091,VALID,0,VALID,93.6994,VALID,0,VALID,19.7568,VALID,124,VALID,1.34883,
2009-08-26, 00:59:04,VALID,917.039,VALID,0,VALID,93.8138,VALID,0,VALID,19.7373,VALID,119,VALID,1.97422,
2009-08-26, 01:00:04,VALID,917.008,VALID,0,VALID,93.9738,VALID,0,VALID,19.7373,VALID,118,VALID,1.03242,
2009-08-26, 01:01:04,VALID,917.011,VALID,0,VALID,94.0958,VALID,0,VALID,19.7583,VALID,111,VALID,0.630078,
2009-08-26, 01:02:04,VALID,916.951,VALID,0,VALID,94.1339,VALID,0,VALID,19.7373,VALID,111,VALID,0.711719,
2009-08-26, 01:03:04,VALID,916.922,VALID,0,VALID,94.0348,VALID,0,VALID,19.7373,VALID,111,VALID,1.06445,
2009-08-26, 01:04:04,VALID,916.921,VALID,0,VALID,94.0348,VALID,0,VALID,19.7568,VALID,111,VALID,0.8375,
2009-08-26, 01:05:04,VALID,916.879,VALID,0,VALID,93.8976,VALID,0,VALID,19.7373,VALID,111,VALID,1.49844,
2009-08-26, 01:06:04,VALID,916.851,VALID,0,VALID,93.9662,VALID,0,VALID,19.7373,VALID,111,VALID,0.785547,
2009-08-26, 01:07:04,VALID,916.849,VALID,0,VALID,93.951,VALID,0,VALID,19.7388,VALID,111,VALID,0.720703,
2009-08-26, 01:08:04,VALID,916.843,VALID,0,VALID,93.9967,VALID,0,VALID,19.7178,VALID,111,VALID,0.608984,
2009-08-26, 01:09:04,VALID,916.791,VALID,0,VALID,94.0882,VALID,0,VALID,19.7388,VALID,111,VALID,0.654297,
2009-08-26, 01:10:04,VALID,916.777,VALID,0,VALID,94.2254,VALID,0,VALID,19.6983,VALID,111,VALID,0.849609,
2009-08-26, 01:11:04,VALID,916.744,VALID,0,VALID,94.3321,VALID,0,VALID,19.6983,VALID,111,VALID,0.730078,
2009-08-26, 01:12:04,VALID,916.765,VALID,0,VALID,94.416,VALID,0,VALID,19.6578,VALID,111,VALID,0.750781,
2009-08-26, 01:13:04,VALID,916.72,VALID,0,VALID,94.4922,VALID,0,VALID,19.6593,VALID,111,VALID,0.851172,
2009-08-26, 01:14:04,VALID,916.722,VALID,0,VALID,94.5837,VALID,0,VALID,19.6788,VALID,111,VALID,0.537109,
2009-08-26, 01:15:04,VALID,916.701,VALID,0,VALID,94.6523,VALID,0,VALID,19.6788,VALID,111,VALID,0.639453,
2009-08-26, 01:16:04,VALID,916.68,VALID,0,VALID,94.7057,VALID,0,VALID,19.6788,VALID,111,VALID,0.396484,
2009-08-26, 01:17:04,VALID,916.67,VALID,0,VALID,94.7896,VALID,0,VALID,19.6983,VALID,111,VALID,0.722656,
2009-08-26, 01:18:04,VALID,916.677,VALID,0,VALID,94.7362,VALID,0,VALID,19.6788,VALID,111,VALID,0.590625,
2009-08-26, 01:19:04,VALID,916.67,VALID,0,VALID,94.6752,VALID,0,VALID,19.6788,VALID,111,VALID,0.605859,
2009-08-26, 01:20:04,VALID,916.673,VALID,0,VALID,94.66,VALID,0,VALID,19.6788,VALID,111,VALID,0.417969,
2009-08-26, 01:21:04,VALID,916.654,VALID,0,VALID,94.6828,VALID,0,VALID,19.6788,VALID,111,VALID,0.21875,
2009-08-26, 01:22:04,VALID,916.654,VALID,0,VALID,94.538,VALID,0,VALID,19.6593,VALID,111,VALID,0.314844,
2009-08-26, 01:23:04,VALID,916.636,VALID,0,VALID,94.4617,VALID,0,VALID,19.6608,VALID,111,VALID,0.539844,
2009-08-26, 01:24:04,VALID,916.626,VALID,0,VALID,94.3931,VALID,0,VALID,19.6398,VALID,111,VALID,0.380859,
2009-08-26, 01:25:04,VALID,916.605,VALID,0,VALID,94.5761,VALID,0,VALID,19.6398,VALID,111,VALID,0.419922,
2009-08-26, 01:26:04,VALID,916.577,VALID,0,VALID,94.5761,VALID,0,VALID,19.6578,VALID,111,VALID,0.175781,
2009-08-26, 01:27:04,VALID,916.569,VALID,0,VALID,94.4465,VALID,0,VALID,19.6398,VALID,111,VALID,0.356641,
2009-08-26, 01:28:04,VALID,916.543,VALID,0,VALID,94.5227,VALID,0,VALID,19.6398,VALID,111,VALID,0.260156,
2009-08-26, 01:29:04,VALID,916.528,VALID,0,VALID,94.2864,VALID,0,VALID,19.6008,VALID,111,VALID,0.615625,
2009-08-26, 01:30:04,VALID,916.505,VALID,0,VALID,94.233,VALID,0,VALID,19.5813,VALID,111,VALID,0.566797,
2009-08-26, 01:31:04,VALID,916.517,VALID,0,VALID,94.1263,VALID,0,VALID,19.5813,VALID,112,VALID,0.599609,
2009-08-26, 01:32:04,VALID,916.49,VALID,0,VALID,94.233,VALID,0,VALID,19.6203,VALID,112,VALID,0.592969,
2009-08-26, 01:33:04,VALID,916.512,VALID,0,VALID,94.2254,VALID,0,VALID,19.6398,VALID,112,VALID,0.866016,
2009-08-26, 01:34:04,VALID,916.506,VALID,0,VALID,94.1034,VALID,0,VALID,19.6413,VALID,112,VALID,0.561719,
2009-08-26, 01:35:04,VALID,916.534,VALID,0,VALID,93.9738,VALID,0,VALID,19.6203,VALID,178,VALID,1.14453,
2009-08-26, 01:36:04,VALID,916.547,VALID,0,VALID,94.0425,VALID,0,VALID,19.6398,VALID,178,VALID,0.732813,
2009-08-26, 01:37:04,VALID,916.571,VALID,0,VALID,94.0348,VALID,0,VALID,19.6203,VALID,139,VALID,1.02344,
2009-08-26, 01:38:04,VALID,916.565,VALID,0,VALID,94.0196,VALID,0,VALID,19.6203,VALID,133,VALID,0.921484,
2009-08-26, 01:39:04,VALID,916.567,VALID,0,VALID,94.0653,VALID,0,VALID,19.6203,VALID,133,VALID,0.734766,
2009-08-26, 01:40:04,VALID,916.542,VALID,0,VALID,93.9586,VALID,0,VALID,19.6203,VALID,148,VALID,0.722656,
2009-08-26, 01:41:04,VALID,916.542,VALID,0,VALID,93.7299,VALID,0,VALID,19.6008,VALID,155,VALID,1.64648,
2009-08-26, 01:42:04,VALID,916.478,VALID,0,VALID,93.707,VALID,0,VALID,19.5813,VALID,154,VALID,1.38008,
2009-08-26, 01:43:04,VALID,916.503,VALID,0,VALID,93.829,VALID,0,VALID,19.5813,VALID,153,VALID,0.967578,
2009-08-26, 01:44:04,VALID,916.494,VALID,0,VALID,93.8061,VALID,0,VALID,19.5813,VALID,154,VALID,0.559766,
2009-08-26, 01:45:04,VALID,916.506,VALID,0,VALID,93.768,VALID,0,VALID,19.5618,VALID,154,VALID,1.25508,
2009-08-26, 01:46:04,VALID,916.497,VALID,0,VALID,93.8366,VALID,0,VALID,19.5618,VALID,154,VALID,0.916016,
2009-08-26, 01:47:04,VALID,916.494,VALID,0,VALID,93.7604,VALID,0,VALID,19.5228,VALID,159,VALID,0.762891,
2009-08-26, 01:48:04,VALID,916.503,VALID,0,VALID,93.7604,VALID,0,VALID,19.5423,VALID,128,VALID,1.06914,
2009-08-26, 01:49:04,VALID,916.494,VALID,0,VALID,93.6613,VALID,0,VALID,19.5228,VALID,128,VALID,1.52422,
2009-08-26, 01:50:04,VALID,916.524,VALID,0,VALID,93.5851,VALID,0,VALID,19.5228,VALID,124,VALID,1.3543,
2009-08-26, 01:51:04,VALID,916.528,VALID,0,VALID,93.6308,VALID,0,VALID,19.5228,VALID,121,VALID,0.85,
2009-08-26, 01:52:04,VALID,916.533,VALID,0,VALID,93.6155,VALID,0,VALID,19.5228,VALID,121,VALID,0.916797,
2009-08-26, 01:53:04,VALID,916.525,VALID,0,VALID,93.4555,VALID,0,VALID,19.5033,VALID,121,VALID,1.43594,
2009-08-26, 01:54:04,VALID,916.535,VALID,0,VALID,93.5927,VALID,0,VALID,19.5228,VALID,121,VALID,0.468359,
2009-08-26, 01:55:04,VALID,916.555,VALID,0,VALID,93.5774,VALID,0,VALID,19.5033,VALID,94,VALID,0.589844,
2009-08-26, 01:56:04,VALID,916.566,VALID,0,VALID,93.6308,VALID,0,VALID,19.5228,VALID,94,VALID,0.441016,
2009-08-26, 01:57:04,VALID,916.56,VALID,0,VALID,93.2496,VALID,0,VALID,19.5033,VALID,118,VALID,0.721094,
2009-08-26, 01:58:04,VALID,916.563,VALID,0,VALID,92.8685,VALID,0,VALID,19.5228,VALID,118,VALID,0.954687,
2009-08-26, 01:59:04,VALID,916.573,VALID,0,VALID,92.8532,VALID,0,VALID,19.5423,VALID,118,VALID,0.966406,
2009-08-26, 02:00:04,VALID,916.525,VALID,0,VALID,92.838,VALID,0,VALID,19.5423,VALID,118,VALID,0.650781,
2009-08-26, 02:01:04,VALID,916.528,VALID,0,VALID,92.7312,VALID,0,VALID,19.5618,VALID,118,VALID,0.463281,
2009-08-26, 02:02:04,VALID,916.55,VALID,0,VALID,92.8685,VALID,0,VALID,19.5813,VALID,118,VALID,0.337891,
2009-08-26, 02:03:04,VALID,916.485,VALID,0,VALID,92.5025,VALID,0,VALID,19.5813,VALID,118,VALID,0.305859,
2009-08-26, 02:04:04,VALID,916.526,VALID,0,VALID,92.4568,VALID,0,VALID,19.5813,VALID,118,VALID,0.473437,
2009-08-26, 02:05:04,VALID,916.516,VALID,0,VALID,92.7617,VALID,0,VALID,19.6008,VALID,118,VALID,0.218359,
2009-08-26, 02:06:04,VALID,916.49,VALID,0,VALID,92.7693,VALID,0,VALID,19.6203,VALID,118,VALID,0.378125,
2009-08-26, 02:07:04,VALID,916.493,VALID,0,VALID,92.8151,VALID,0,VALID,19.6203,VALID,118,VALID,0.494141,
2009-08-26, 02:08:04,VALID,916.51,VALID,0,VALID,92.8608,VALID,0,VALID,19.6218,VALID,118,VALID,0.465234,
2009-08-26, 02:09:04,VALID,916.512,VALID,0,VALID,93.0209,VALID,0,VALID,19.6203,VALID,118,VALID,0.3875,
2009-08-26, 02:10:04,VALID,916.513,VALID,0,VALID,93.1734,VALID,0,VALID,19.6203,VALID,118,VALID,0.339063,
2009-08-26, 02:11:04,VALID,916.513,VALID,0,VALID,93.0895,VALID,0.107441,VALID,19.6008,VALID,118,VALID,0.583984,
2009-08-26, 02:12:04,VALID,916.525,VALID,0,VALID,93.1048,VALID,0,VALID,19.5813,VALID,118,VALID,0.336719,
2009-08-26, 02:13:04,VALID,916.531,VALID,0,VALID,93.2344,VALID,0,VALID,19.5618,VALID,118,VALID,0.108594,
2009-08-26, 02:14:04,VALID,916.543,VALID,0,VALID,93.2801,VALID,0,VALID,19.5618,VALID,118,VALID,0.239063,
2009-08-26, 02:15:04,VALID,916.529,VALID,0,VALID,93.4021,VALID,0,VALID,19.5828,VALID,118,VALID,0.184766,
2009-08-26, 02:16:04,VALID,916.549,VALID,0,VALID,93.6842,VALID,0,VALID,19.5828,VALID,118,VALID,0.202344,
2009-08-26, 02:17:04,VALID,916.551,VALID,0,VALID,93.8519,VALID,0,VALID,19.5813,VALID,118,VALID,0,
2009-08-26, 02:18:04,VALID,916.544,VALID,0,VALID,93.768,VALID,0,VALID,19.5423,VALID,118,VALID,0,
2009-08-26, 02:19:04,VALID,916.575,VALID,0,VALID,93.6765,VALID,0,VALID,19.5423,VALID,118,VALID,0.00507812,
2009-08-26, 02:20:04,VALID,916.558,VALID,0,VALID,93.7756,VALID,0,VALID,19.5228,VALID,118,VALID,0,
2009-08-26, 02:21:04,VALID,916.558,VALID,0,VALID,93.7147,VALID,0,VALID,19.5048,VALID,118,VALID,0,
2009-08-26, 02:22:04,VALID,916.545,VALID,0,VALID,93.9434,VALID,0,VALID,19.5048,VALID,118,VALID,0.501562,
2009-08-26, 02:23:04,VALID,916.551,VALID,0,VALID,94.0501,VALID,0,VALID,19.5033,VALID,117,VALID,1.22734,
2009-08-26, 02:24:04,VALID,916.519,VALID,0,VALID,93.7451,VALID,0,VALID,19.4463,VALID,117,VALID,1.18203,
2009-08-26, 02:25:04,VALID,916.527,VALID,0,VALID,93.8976,VALID,0,VALID,19.4059,VALID,117,VALID,0.703125,
2009-08-26, 02:26:04,VALID,916.512,VALID,0,VALID,94.0196,VALID,0,VALID,19.3864,VALID,117,VALID,0.753906,
2009-08-26, 02:27:04,VALID,916.509,VALID,0,VALID,94.1034,VALID,0,VALID,19.3474,VALID,117,VALID,1.08438,
2009-08-26, 02:28:04,VALID,916.545,VALID,0,VALID,94.416,VALID,0,VALID,19.3684,VALID,117,VALID,1.05703,
2009-08-26, 02:29:04,VALID,916.512,VALID,0,VALID,94.4999,VALID,0,VALID,19.3684,VALID,117,VALID,0.691406,
2009-08-26, 02:30:04,VALID,916.537,VALID,0,VALID,94.5075,VALID,0,VALID,19.3084,VALID,117,VALID,1.24453,
2009-08-26, 02:31:04,VALID,916.537,VALID,0,VALID,94.6981,VALID,0,VALID,19.3084,VALID,116,VALID,1.19414,
2009-08-26, 02:32:04,VALID,916.551,VALID,0,VALID,94.9039,VALID,0,VALID,19.3279,VALID,116,VALID,1.19141,
2009-08-26, 02:33:04,VALID,916.545,VALID,0,VALID,94.9725,VALID,0,VALID,19.3084,VALID,98,VALID,1.225,
2009-08-26, 02:34:04,VALID,916.525,VALID,0,VALID,94.8048,VALID,0,VALID,19.2499,VALID,26,VALID,1.64453,
2009-08-26, 02:35:04,VALID,916.518,VALID,0,VALID,94.9115,VALID,0,VALID,19.2124,VALID,26,VALID,0.986328,
2009-08-26, 02:36:04,VALID,916.476,VALID,0,VALID,94.881,VALID,0,VALID,19.1914,VALID,26,VALID,1.33203,
2009-08-26, 02:37:04,VALID,916.497,VALID,0,VALID,94.7896,VALID,0,VALID,19.1149,VALID,26,VALID,1.61758,
2009-08-26, 02:38:04,VALID,916.481,VALID,0,VALID,94.8887,VALID,0,VALID,19.055,VALID,26,VALID,1.18398,
2009-08-26, 02:39:04,VALID,916.455,VALID,0,VALID,94.9725,VALID,0,VALID,19.055,VALID,1,VALID,1.44766,
2009-08-26, 02:40:04,VALID,916.451,VALID,0,VALID,95.0869,VALID,0,VALID,19.0745,VALID,1,VALID,0.95,
2009-08-26, 02:41:04,VALID,916.469,VALID,0,VALID,95.1479,VALID,0,VALID,19.055,VALID,1,VALID,0.866797,
2009-08-26, 02:42:04,VALID,916.425,VALID,0,VALID,95.1707,VALID,0,VALID,19.0954,VALID,1,VALID,0.889844,
2009-08-26, 02:43:04,VALID,916.434,VALID,0,VALID,95.1707,VALID,0,VALID,19.055,VALID,1,VALID,0.772656,
2009-08-26, 02:44:04,VALID,916.449,VALID,0,VALID,95.2012,VALID,0,VALID,19.0564,VALID,1,VALID,0.34375,
2009-08-26, 02:45:04,VALID,916.405,VALID,0,VALID,95.2165,VALID,0,VALID,19.055,VALID,1,VALID,0.5125,
2009-08-26, 02:46:04,VALID,916.451,VALID,0,VALID,95.2165,VALID,0,VALID,19.0355,VALID,1,VALID,0.65,
2009-08-26, 02:47:04,VALID,916.429,VALID,0,VALID,95.3156,VALID,0,VALID,19.0355,VALID,1,VALID,0.246875,
2009-08-26, 02:48:04,VALID,916.42,VALID,0,VALID,95.2012,VALID,0,VALID,19.0369,VALID,1,VALID,0.390625,
2009-08-26, 02:49:04,VALID,916.421,VALID,0,VALID,95.1555,VALID,0,VALID,18.9965,VALID,1,VALID,0.416797,
2009-08-26, 02:50:04,VALID,916.397,VALID,0,VALID,95.1936,VALID,0,VALID,18.998,VALID,1,VALID,0.532812,
2009-08-26, 02:51:04,VALID,916.404,VALID,0,VALID,95.2088,VALID,0,VALID,18.9965,VALID,1,VALID,0.576172,
2009-08-26, 02:52:04,VALID,916.354,VALID,0,VALID,95.0945,VALID,0,VALID,18.9575,VALID,1,VALID,0.447266,
2009-08-26, 02:53:04,VALID,916.366,VALID,0,VALID,95.1402,VALID,0.107441,VALID,18.9756,VALID,1,VALID,0.332812,
2009-08-26, 02:54:04,VALID,916.363,VALID,0,VALID,94.9801,VALID,0,VALID,18.9575,VALID,1,VALID,0.451953,
2009-08-26, 02:55:04,VALID,916.327,VALID,0,VALID,94.8277,VALID,0,VALID,18.9171,VALID,1,VALID,0.585938,
2009-08-26, 02:56:04,VALID,916.332,VALID,0,VALID,94.7972,VALID,0,VALID,18.9186,VALID,1,VALID,0.472266,
2009-08-26, 02:57:04,VALID,916.324,VALID,0,VALID,94.7896,VALID,0.107441,VALID,18.8976,VALID,1,VALID,0.532422,
2009-08-26, 02:58:04,VALID,916.3,VALID,0,VALID,94.66,VALID,0,VALID,18.8991,VALID,1,VALID,0.522656,
2009-08-26, 02:59:04,VALID,916.293,VALID,0,VALID,94.5456,VALID,0,VALID,18.8781,VALID,1,VALID,0.633984,
2009-08-26, 03:00:04,VALID,916.271,VALID,0,VALID,94.3931,VALID,0,VALID,18.938,VALID,1,VALID,0.505469,
2009-08-26, 03:01:04,VALID,916.264,VALID,0,VALID,94.416,VALID,0.107441,VALID,18.9561,VALID,1,VALID,0.650391,
2009-08-26, 03:02:04,VALID,916.236,VALID,0,VALID,94.3855,VALID,0,VALID,18.9561,VALID,1,VALID,1.03672,
2009-08-26, 03:03:04,VALID,916.284,VALID,0,VALID,94.3626,VALID,0,VALID,18.9561,VALID,1,VALID,1.15781,
2009-08-26, 03:04:04,VALID,916.274,VALID,0,VALID,94.4084,VALID,0.107441,VALID,18.9561,VALID,1,VALID,0.821875,
2009-08-26, 03:05:04,VALID,916.299,VALID,0,VALID,94.4846,VALID,0.107441,VALID,18.9756,VALID,154,VALID,0.986328,
2009-08-26, 03:06:04,VALID,916.354,VALID,0,VALID,94.4846,VALID,0.107441,VALID,18.9756,VALID,153,VALID,1.36914,
2009-08-26, 03:07:04,VALID,916.377,VALID,0,VALID,94.477,VALID,0,VALID,19.016,VALID,150,VALID,0.857422,
2009-08-26, 03:08:04,VALID,916.375,VALID,0,VALID,94.5075,VALID,0,VALID,18.9965,VALID,119,VALID,0.816406,
2009-08-26, 03:09:04,VALID,916.389,VALID,0,VALID,94.5913,VALID,0,VALID,18.9965,VALID,119,VALID,1.00117,
2009-08-26, 03:10:04,VALID,916.379,VALID,0,VALID,94.7057,VALID,0,VALID,18.9756,VALID,119,VALID,1.05469,
2009-08-26, 03:11:04,VALID,916.405,VALID,0,VALID,94.8658,VALID,0,VALID,18.9756,VALID,119,VALID,1.43945,
2009-08-26, 03:12:04,VALID,916.391,VALID,0,VALID,94.9725,VALID,0,VALID,18.977,VALID,109,VALID,0.916797,
2009-08-26, 03:13:04,VALID,916.392,VALID,0,VALID,95.0945,VALID,0,VALID,18.9756,VALID,109,VALID,1.10742,
2009-08-26, 03:14:04,VALID,916.435,VALID,0,VALID,95.1783,VALID,0,VALID,18.9951,VALID,109,VALID,1.51719,
2009-08-26, 03:15:04,VALID,916.419,VALID,0,VALID,95.2698,VALID,0.107441,VALID,19.0146,VALID,109,VALID,0.66875,
2009-08-26, 03:16:04,VALID,916.434,VALID,0,VALID,95.3079,VALID,0,VALID,19.0355,VALID,129,VALID,1.16719,
2009-08-26, 03:17:04,VALID,916.44,VALID,0,VALID,95.3461,VALID,0,VALID,19.0146,VALID,153,VALID,1.09844,
2009-08-26, 03:18:04,VALID,916.398,VALID,0,VALID,95.3689,VALID,0.107441,VALID,19.0341,VALID,153,VALID,0.9375,
2009-08-26, 03:19:04,VALID,916.401,VALID,0,VALID,95.3918,VALID,0.107441,VALID,19.0355,VALID,153,VALID,0.69375,
2009-08-26, 03:20:04,VALID,916.402,VALID,0,VALID,95.4071,VALID,0,VALID,19.055,VALID,160,VALID,1.21992,
2009-08-26, 03:21:04,VALID,916.366,VALID,0,VALID,95.4223,VALID,0,VALID,19.0146,VALID,160,VALID,1.64766,
2009-08-26, 03:22:04,VALID,916.377,VALID,0,VALID,95.4299,VALID,0.107441,VALID,19.0146,VALID,160,VALID,1.05938,
2009-08-26, 03:23:04,VALID,916.37,VALID,0,VALID,95.468,VALID,0,VALID,19.0369,VALID,160,VALID,1.24766,
2009-08-26, 03:24:04,VALID,916.412,VALID,0,VALID,95.4985,VALID,0,VALID,19.0564,VALID,160,VALID,1.15273,
2009-08-26, 03:25:04,VALID,916.391,VALID,0,VALID,95.5062,VALID,0,VALID,19.0564,VALID,160,VALID,0.872266,
2009-08-26, 03:26:04,VALID,916.381,VALID,0,VALID,95.529,VALID,0,VALID,19.0564,VALID,160,VALID,0.804688,
2009-08-26, 03:27:04,VALID,916.409,VALID,0,VALID,95.5519,VALID,0,VALID,19.055,VALID,160,VALID,0.6625,
2009-08-26, 03:28:04,VALID,916.397,VALID,0,VALID,95.5062,VALID,0,VALID,19.0355,VALID,160,VALID,0.78125,
2009-08-26, 03:29:04,VALID,916.42,VALID,0,VALID,95.529,VALID,0,VALID,19.0355,VALID,160,VALID,0.735547,
2009-08-26, 03:30:04,VALID,916.422,VALID,0,VALID,95.529,VALID,0,VALID,19.0564,VALID,160,VALID,1.19844,
2009-08-26, 03:31:04,VALID,916.419,VALID,0,VALID,95.4833,VALID,0,VALID,19.016,VALID,160,VALID,1.05547,
2009-08-26, 03:32:04,VALID,916.406,VALID,0,VALID,95.4909,VALID,0,VALID,18.9965,VALID,160,VALID,1.06875,
2009-08-26, 03:33:04,VALID,916.428,VALID,0,VALID,95.5062,VALID,0,VALID,19.0175,VALID,160,VALID,0.744141,
2009-08-26, 03:34:04,VALID,916.42,VALID,0,VALID,95.5367,VALID,0,VALID,18.9965,VALID,160,VALID,0.365625,
2009-08-26, 03:35:04,VALID,916.449,VALID,0,VALID,95.5824,VALID,0,VALID,19.0564,VALID,160,VALID,0.321484,
2009-08-26, 03:36:04,VALID,916.459,VALID,0,VALID,95.5595,VALID,0,VALID,19.055,VALID,160,VALID,0.307422,
2009-08-26, 03:37:04,VALID,916.468,VALID,0,VALID,95.5671,VALID,0,VALID,19.055,VALID,160,VALID,0.271484,
2009-08-26, 03:38:04,VALID,916.488,VALID,0,VALID,95.59,VALID,0,VALID,19.055,VALID,160,VALID,0.451562,
2009-08-26, 03:39:04,VALID,916.456,VALID,0,VALID,95.6053,VALID,0,VALID,19.094,VALID,160,VALID,0.342578,
2009-08-26, 03:40:04,VALID,916.47,VALID,0,VALID,95.5214,VALID,0,VALID,19.0745,VALID,160,VALID,0.632813,
2009-08-26, 03:41:04,VALID,916.447,VALID,0,VALID,95.4604,VALID,0,VALID,19.055,VALID,160,VALID,0.959766,
2009-08-26, 03:42:04,VALID,916.458,VALID,0,VALID,95.4452,VALID,0,VALID,19.055,VALID,160,VALID,0.839063,
2009-08-26, 03:43:04,VALID,916.434,VALID,0,VALID,95.3918,VALID,0,VALID,19.0355,VALID,160,VALID,0.854688,
2009-08-26, 03:44:04,VALID,916.426,VALID,0,VALID,95.3918,VALID,0,VALID,19.016,VALID,132,VALID,1.11328,
2009-08-26, 03:45:04,VALID,916.413,VALID,0,VALID,95.3842,VALID,0.107441,VALID,19.0355,VALID,132,VALID,0.7875,